Lid_Strength_Index
3 3 3 3 2 3 1 1 2 2 0 0 0 -0 0 0 0 0 1 0 0 0 0 0 0 -1 -0 -0 -0 -0 0 0
5 6 3 3 2 3 2 1 1 1 0 1 1 1 0 0 0 0 0 0 0 1 0 0 0 0 0 0 0 0 0 0
4 4 3 3 3 2 1 1 1 1 1 0 1 0 0 0 0 0 0 0 0 1 0 -0 -0 0 0 1 1 1 1 0
4 4 3 3 2 2 1 1 1 1 1 1 0 0 0 0 -0 -0 -0 0 0 0 0 1 1 1 1 0 0 0 1 1
6 4 3 3 2 2 2 1 1 1 1 1 0 0 0 0 0 0 0 -0 0 0 0 0 1 0 1 1 2 2 2 2
8 7 3 2 2 2 1 1 1 1 1 0 0 0 0 0 -0 0 -0 -0 1 1 0 1 2 2 3 3 3 3 3 4
6 4 3 3 2 2 2 1 1 1 1 0 0 0 0 0 0 0 0 0 0 0 1 3 3 3 3 4 4 4 5 5
6 3 3 5 4 2 4 2 1 1 1 1 1 1 0 -0 0 0 0 0 -0 1 2 2 2 4 4 4 4 4 5 5
6 3 3 3 3 4 3 3 4 3 2 2 2 2 1 1 0 0 1 0 1 1 2 2 2 3 3 3 4 4 4 5
6 4 3 5 5 4 3 4 4 2 2 1 1 2 2 1 0 1 0 1 2 2 2 2 2 3 4 3 4 4 3 3
7 5 4 5 5 3 3 3 1 1 2 1 2 1 1 2 1 1 1 1 1 2 2 2 2 2 3 3 2 3 3 2
6 5 4 5 5 6 5 4 2 1 1 1 2 3 3 2 2 2 2 1 1 0 1 1 0 1 2 2 2 2 3 4
6 5 4 3 4 6 4 2 2 1 1 1 2 2 2 2 3 4 3 2 1 1 1 1 1 0 1 2 2 2 2 3
5 5 3 3 5 4 3 4 2 1 1 1 2 2 2 3 4 4 4 3 3 2 1 1 2 2 1 2 2 3 4 4
6 4 4 4 4 4 3 3 2 2 2 2 2 2 3 4 4 4 4 4 3 3 3 3 3 3 3 3 3 4 4 4
6 4 4 4 4 3 3 3 3 3 3 2 2 4 4 4 4 4 3 3 3 2 2 2 2 2 2 3 3 3 3 4
7 4 4 4 4 3 3 3 3 3 3 3 3 3 3 4 5 3 3 3 3 3 3 3 2 2 3 4 3 4 4 4
5 5 5 4 3 3 3 3 3 3 3 3 3 4 4 4 4 3 3 3 3 3 3 3 3 2 3 3 4 3 3 3
6 5 4 4 4 4 4 3 3 4 4 4 4 5 4 5 5 4 3 3 3 3 3 3 3 3 4 4 4 4 5 4
5 5 4 4 4 4 4 4 4 3 4 5 5 5 4 4 4 3 3 3 3 3 4 4 4 4 5 5 6 6 6 5